Location: Home
(42.5358°N, 72.7383°W)
Time: 04:07:17
(UTC-04:00)

Vanguard 1 - Pass Details

Date: 27 May 2022
Orbit: 649 x 3832 km, 34.2° (Epoch: 24 June)

Event Time Altitude Azimuth Distance (km) Brightness Sun altitude
Exits shadow 23:23:44 22° 125° (SE) 4,001 12.7 -23.1°
Drops below altitude 10° 23:33:56 10° 88° (E) 5,899 13.8 -23.8°
Sets 23:40:56 0° 77° (ENE) 7,421 14.5 -24.2°
